TimeCDT,TemperatureF,Dew PointF,Humidity,Sea Level PressureIn,VisibilityMPH,Wind Direction,Wind SpeedMPH,Gust SpeedMPH,PrecipitationIn,Events,Conditions,WindDirDegrees,DateUTC
12:53 AM,50.0,48.0,93,29.88,10.0,Calm,Calm,-,N/A,,Clear,0,2013-04-12 05:53:00
1:53 AM,48.0,46.0,93,29.89,10.0,Calm,Calm,-,N/A,,Clear,0,2013-04-12 06:53:00
2:53 AM,48.0,46.0,93,29.89,10.0,Calm,Calm,-,N/A,,Clear,0,2013-04-12 07:53:00
3:53 AM,46.9,46.0,97,29.90,10.0,Calm,Calm,-,N/A,,Clear,0,2013-04-12 08:53:00
4:53 AM,45.0,44.1,97,29.91,10.0,Calm,Calm,-,N/A,,Clear,0,2013-04-12 09:53:00
5:53 AM,45.0,44.1,97,29.93,10.0,Calm,Calm,-,N/A,,Clear,0,2013-04-12 10:53:00
6:53 AM,45.0,44.1,97,29.95,10.0,Calm,Calm,-,N/A,,Clear,0,2013-04-12 11:53:00
7:53 AM,50.0,46.9,89,29.96,10.0,Calm,Calm,-,N/A,,Clear,0,2013-04-12 12:53:00
8:53 AM,55.0,48.9,80,29.99,10.0,North,3.5,-,N/A,,Clear,350,2013-04-12 13:53:00
9:53 AM,60.1,46.9,62,30.00,10.0,North,5.8,-,N/A,,Clear,350,2013-04-12 14:53:00
10:53 AM,64.0,45.0,50,30.01,10.0,NNW,4.6,-,N/A,,Clear,330,2013-04-12 15:53:00
11:53 AM,66.9,39.9,37,30.00,10.0,Variable,5.8,-,N/A,,Clear,0,2013-04-12 16:53:00
12:53 PM,69.1,43.0,39,29.99,10.0,Variable,4.6,-,N/A,,Clear,0,2013-04-12 17:53:00
1:53 PM,72.0,39.9,31,29.97,10.0,NNW,6.9,-,N/A,,Clear,330,2013-04-12 18:53:00
2:53 PM,73.0,39.0,29,29.95,10.0,Calm,Calm,-,N/A,,Clear,0,2013-04-12 19:53:00
3:53 PM,75.0,41.0,29,29.93,10.0,Variable,3.5,-,N/A,,Clear,0,2013-04-12 20:53:00
4:53 PM,75.0,39.9,28,29.91,10.0,NNE,4.6,-,N/A,,Clear,20,2013-04-12 21:53:00
5:53 PM,73.9,41.0,30,29.91,10.0,Variable,3.5,-,N/A,,Clear,0,2013-04-12 22:53:00
6:53 PM,73.0,42.1,33,29.92,10.0,Calm,Calm,-,N/A,,Clear,0,2013-04-12 23:53:00
7:53 PM,62.1,48.9,62,29.94,10.0,Calm,Calm,-,N/A,,Clear,0,2013-04-13 00:53:00
8:53 PM,60.1,51.1,72,29.96,10.0,Calm,Calm,-,N/A,,Clear,0,2013-04-13 01:53:00
9:53 PM,57.9,50.0,75,29.99,10.0,Calm,Calm,-,N/A,,Clear,0,2013-04-13 02:53:00
10:53 PM,55.0,50.0,83,30.00,10.0,Calm,Calm,-,N/A,,Clear,0,2013-04-13 03:53:00
11:53 PM,53.1,50.0,89,30.00,10.0,Calm,Calm,-,N/A,,Clear,0,2013-04-13 04:53:00